User: anonymous   Login
Location: Unspecified
(0.0000°N, 0.0000°E)
Time: 07:26:49
(UTC+00:00)
Language:

USA 215 - Orbit

View from above orbital plane
View from above orbital plane
View from above satellite
View from above satellite

Ground track
Ground track

The orbit data is extracted from the following two-line orbital elements,

1 37162U 10046A   17279.12648759 0.00000000  00000-0  00000-0 0    01
2 37162 123.0003 159.7505 0004000  82.2711 277.7288 13.41405963    04
Epoch (UTC): 06 October 2017 03:02:08
Eccentricity: 0.0004000
inclination: 123.0003°
perigee height: 1101 km
apogee height: 1107 km
right ascension of ascending node: 159.7505°
argument of perigee: 82.2711°
revolutions per day: 13.41405963
mean anomaly at epoch: 277.7288°
orbit number at epoch: 0

The dashed part of the orbit path shows where the satellite is in the earth's shadow,  

DLR